Simultaneous Nadir Overpasses (SNOs) Predictions

Prediction of SNOs between LANDSAT-8 and NPP Satellite Orbit:

Table of predicted SNOs for the next 14.0 days since TLE Epoch: 11/9/2024
Index Date (LANDSAT-8) Time (LANDSAT-8) Lat,Lon (LANDSAT-8) SZA (LANDSAT-8 ) Date (NPP) Time (NPP) Lat,Lon (NPP) SZA (NPP ) Distance(km) Time Diff (sec)
1 11/09/2024 06:58:25 -70.13,-108.11 92.96 11/09/2024 06:57:13 -70.13,-108.11 92.97 0.56 72
2 11/09/2024 07:47:52 70.03, 59.39 86.95 11/09/2024 07:47:58 70.04, 59.32 86.96 3.07 6
3 11/09/2024 08:37:24 -69.81,-133.29 93.27 11/09/2024 08:38:37 -69.82,-133.02 93.26 10.40 73
4 11/11/2024 23:14:54 -70.08, 7.70 92.28 11/11/2024 23:14:06 -70.10, 7.71 92.25 2.27 48
5 11/12/2024 00:04:21 69.97, 175.20 87.63 11/12/2024 00:04:50 69.97, 175.22 87.63 1.08 29
6 11/14/2024 14:41:38 70.87, -42.87 89.22 11/14/2024 14:40:31 70.91, -45.13 89.26 82.23 67
7 11/14/2024 15:31:21 -70.05, 123.55 91.61 11/14/2024 15:30:58 -70.05, 123.57 91.60 0.87 23
8 11/14/2024 16:20:48 69.93, -68.96 88.30 11/14/2024 16:21:42 69.92, -68.93 88.28 2.42 54
9 11/17/2024 06:58:16 70.14, 71.94 89.15 11/17/2024 06:57:09 70.15, 71.88 89.16 2.93 67
10 11/17/2024 07:47:46 -70.03,-120.58 90.96 11/17/2024 07:47:50 -70.02,-120.61 90.96 1.41 4
11 11/17/2024 08:37:18 69.64, 46.53 88.66 11/17/2024 08:38:29 69.63, 47.28 88.66 29.29 71
12 11/19/2024 23:14:39 70.08,-172.23 89.72 11/19/2024 23:13:59 70.10,-172.26 89.74 2.64 40
13 11/20/2024 00:04:09 -69.98, -4.75 90.39 11/20/2024 00:04:40 -69.97, -4.75 90.39 0.33 31
14 11/22/2024 14:41:25 -70.66, 136.88 89.14 11/22/2024 14:40:15 -70.67, 135.32 89.12 57.70 70
15 11/22/2024 15:31:01 70.04, -56.37 90.26 11/22/2024 15:30:49 70.03, -56.36 90.25 1.72 12
16 11/22/2024 16:20:31 -69.94, 111.12 89.84 11/22/2024 16:21:31 -69.95, 111.08 89.83 1.85 60



Historial Predications of SNOs between LANDSAT-8 and NPP
